Location: Wroclaw
(51.1000°N, 17.0330°E)
Time: 21:05:53
(UTC+01:00)

ISS - Visible Passes

Search period start: 30 November 2022 00:00
Search period end: 10 December 2022 00:00
Orbit: 415 x 420 km, 51.6° (Epoch: 30 November)

Date Brightness Start Highest point End Pass type
(mag) Time Alt. Az. Time Alt. Az. Time Alt. Az.
30 Nov -3.8 17:03:31 10° W 17:06:53 82° N 17:09:13 19° E visible
30 Nov -1.6 18:40:21 10° W 18:42:09 27° W 18:42:09 27° W visible
01 Dec -3.5 17:52:18 10° W 17:55:38 62° SSW 17:56:13 50° SSE visible
02 Dec -3.7 17:04:17 10° W 17:07:39 78° SSW 17:10:23 15° ESE visible
02 Dec -1.4 18:41:20 10° W 18:43:19 22° WSW 18:43:19 22° WSW visible
03 Dec -2.3 17:53:09 10° W 17:56:14 34° SSW 17:57:38 23° SSE visible
04 Dec -2.8 17:05:05 10° W 17:08:19 47° SSW 17:11:33 10° SE visible
04 Dec -0.7 18:43:08 10° WSW 18:44:28 12° SW 18:45:06 11° SSW visible
05 Dec -1.0 17:54:22 10° W 17:56:41 18° SW 17:59:00 10° S visible
06 Dec -1.4 17:06:03 10° W 17:08:52 25° SSW 17:11:39 10° SSE visible
07 Dec -2.0 16:17:53 10° W 16:20:59 35° SSW 16:24:04 10° SE visible
08 Dec -0.4 17:07:47 10° WSW 17:09:14 12° SW 17:10:40 10° SSW visible
09 Dec -0.7 16:19:04 10° W 16:21:26 18° SW 16:23:47 10° S visible
